INTELSAT 34 (IS-34)

Last updated on Tue Sep 22 2026 00:03:13 GMT+0000 (Coordinated Universal Time)

1 40874U 15039A 26264.40682363 -.00000289 00000+0 00000+0 0 9991 2 40874 0.0239 283.9725 0000457 129.6242 37.6755 1.00272529 40596
UTC large
Height (km)
Speed (km/s)
/
Latitude / Longitude
Inclination (degrees)
Orbital Period (minutes)
Azimuth
Elevation
Range (km)
Doppler Factor

Next 0 passes for location: London (51.5072 / 0.1276)

No passes found over London.
INTELSAT 34 (IS-34)